Regional Weather Roundup
Issued by NWS Goodland, KS

Home | Current Version | Previous Version | Graphics & Text | Print | Product List | Glossary On
Versions: 1 2 3 4 5 6 7 8 9 10 11 12 13 14 15 16 17 18 19 20 21 22 23 24 25 26 27 28 29 30 31 32 33 34 35 36 37 38 39 40 41 42 43 44 45 46 47 48 49 50
000
ASUS43 KGLD 020459
RWRGLD

GOODLAND FORECAST AREA HOURLY WEATHER ROUNDUP
NATIONAL WEATHER SERVICE GOODLAND KS
1100 PM MDT SAT AUG 01 2015

...OFFICIAL OBSERVATIONS...

CITY           SKY/WX    TMP DP  RH WIND       PRES   REMARKS
GOODLAND KS    CLOUDY    73  60  63 S9        30.04F
HILL CITY KS   CLOUDY    76  64  66 S8        29.97F
IMPERIAL NEB   MOCLDY    76  52  43 S9        29.98F
MCCOOK NEB     CLOUDY    78  57  48 SW8       29.96F
AKRON CO       MOCLDY    68  56  65 E12       30.11R
BURLINGTON CO  CLOUDY    73  63  70 S8        30.09S
LIMON CO       CLOUDY    64  51  62 N3        30.17R
$$

...UNOFFICIAL OBSERVATIONS...

CITY           SKY/WX    TMP DP  RH WIND       PRES   REMARKS
COLBY KS       CLEAR     73  63  68 SE5       30.03F
NORTON KS      CLEAR     75  54  46 S8        29.96F
SHARON SPRINGS   N/A     73  66  79 S10         N/A
KIT CARSON CO    N/A     76  64  67 MISG        N/A
YUMA CO          N/A     70  57  62 SE9         N/A
$$


USA.gov is the U.S. government's official web portal to all federal, state and local government web resources and services.